TimeEDT,TemperatureF,Dew PointF,Humidity,Sea Level PressureIn,VisibilityMPH,Wind Direction,Wind SpeedMPH,Gust SpeedMPH,PrecipitationIn,Events,Conditions,WindDirDegrees,DateUTC
12:52 AM,73.9,70.0,87,29.98,10.0,West,3.5,-,N/A,,Clear,280,2013-09-04 04:52:00
1:52 AM,73.0,69.1,87,29.97,9.0,Calm,Calm,-,N/A,,Clear,0,2013-09-04 05:52:00
2:52 AM,72.0,69.1,91,29.97,9.0,Calm,Calm,-,N/A,,Partly Cloudy,0,2013-09-04 06:52:00
3:52 AM,72.0,69.1,91,29.97,10.0,NW,3.5,-,N/A,,Clear,310,2013-09-04 07:52:00
4:52 AM,72.0,69.1,91,29.98,10.0,NW,3.5,-,N/A,,Partly Cloudy,320,2013-09-04 08:52:00
5:52 AM,71.1,68.0,90,29.99,10.0,WNW,3.5,-,N/A,,Scattered Clouds,300,2013-09-04 09:52:00
6:52 AM,71.1,68.0,90,30.00,9.0,NNW,4.6,-,N/A,,Scattered Clouds,330,2013-09-04 10:52:00
7:52 AM,71.1,68.0,90,30.03,8.0,NW,4.6,-,N/A,,Scattered Clouds,320,2013-09-04 11:52:00
8:52 AM,75.0,70.0,84,30.04,8.0,NW,4.6,-,N/A,,Scattered Clouds,320,2013-09-04 12:52:00
9:52 AM,80.1,69.1,69,30.06,10.0,Calm,Calm,-,N/A,,Scattered Clouds,0,2013-09-04 13:52:00
10:52 AM,82.0,69.1,65,30.07,10.0,SE,4.6,-,N/A,,Scattered Clouds,130,2013-09-04 14:52:00
11:52 AM,84.9,66.0,53,30.07,10.0,NW,5.8,-,N/A,,Scattered Clouds,310,2013-09-04 15:52:00
12:52 PM,86.0,66.0,51,30.06,10.0,NW,6.9,-,N/A,,Mostly Cloudy,310,2013-09-04 16:52:00
1:52 PM,88.0,66.0,48,30.06,10.0,WNW,8.1,-,N/A,,Mostly Cloudy,300,2013-09-04 17:52:00
2:52 PM,87.1,66.0,49,30.05,10.0,WNW,5.8,-,N/A,,Scattered Clouds,290,2013-09-04 18:52:00
3:52 PM,88.0,66.0,48,30.04,10.0,WNW,6.9,-,N/A,,Scattered Clouds,300,2013-09-04 19:52:00
4:52 PM,88.0,66.9,49,30.03,10.0,NW,6.9,-,N/A,,Scattered Clouds,310,2013-09-04 20:52:00
5:52 PM,86.0,66.9,53,30.01,10.0,Variable,5.8,-,N/A,,Scattered Clouds,0,2013-09-04 21:52:00
6:52 PM,86.0,66.0,51,30.01,10.0,NW,5.8,-,N/A,,Partly Cloudy,310,2013-09-04 22:52:00
7:52 PM,82.9,66.0,56,30.03,10.0,NNW,5.8,-,N/A,,Partly Cloudy,330,2013-09-04 23:52:00
8:52 PM,80.1,66.0,62,30.06,10.0,NNW,5.8,-,N/A,,Scattered Clouds,330,2013-09-05 00:52:00
9:52 PM,80.1,64.0,58,30.08,10.0,Variable,5.8,-,N/A,,Mostly Cloudy,0,2013-09-05 01:52:00
10:52 PM,78.1,64.9,64,30.09,10.0,NNW,3.5,-,N/A,,Mostly Cloudy,330,2013-09-05 02:52:00
11:52 PM,79.0,64.9,62,30.08,10.0,NE,5.8,-,N/A,,Partly Cloudy,40,2013-09-05 03:52:00